Flag for Germany Weather past 2 weeks in Sankt Ingbert, Saarland, Germany

Now
67 °F

Scattered clouds.


Feels Like: 67 °F
Forecast: 50 / 74 °F
Wind: 7 mph from Northwest

Location: Saarbruecken / Ensheim

Current Time: Jun 3, 2015 at 5:43:19 PM

Latest Report: Jun 3, 2015 at 5:00 PM


Visibility: 37 mi

Pressure: 30.22 "Hg

Humidity: 65%

Dew point: 55 °F

Location of Sankt IngbertLocation

Historic Weather in Sankt Ingbert — Graph

°F

Sankt Ingbert temperature yesterday

Maximum temperature yesterday: 73 °F (at 6:00 PM)
Minimum temperature yesterday: 48 °F (at 12:00 AM)
Average temperature yesterday: 61 °F

Past Weeks' High & Low Weather Summary

 TemperatureHumidityPressure
High73 °F (Jun 2, 6:00 PM)100% (May 21, 6:00 AM)30.37 "Hg (May 21, 6:00 AM)
Low35 °F (May 21, 6:00 AM)37% (May 21, 7:00 PM)29.83 "Hg (May 19, 5:00 PM)
Average55 °F72%30.07 "Hg
* Reported May 19 4:00 PM — Jun 3 4:00 PM, Sankt Ingbert, Weather by CustomWeather, © 2015

Note: Actual official high and low records may vary slightly from our data, if they occured in-between our weather recording intervals... More about our weather records

Advertising

Sankt Ingbert weather history for previous 24 hours

 ConditionsComfort  
Time TempWeatherWind HumidityBarometerVisibility
4:00 PM
Wed, Jun 3
69 °FScattered clouds.6 mph65%30.22 "Hg43 mi
3:00 PM69 °FScattered clouds.7 mph64%30.21 "Hg43 mi
2:00 PM68 °FPartly sunny.7 mph63%30.21 "Hg43 mi
1:00 PM66 °FOvercast.6 mph71%30.21 "Hg43 mi
12:00 PM65 °FPartly sunny.7 mph73%30.20 "Hg43 mi
11:00 AM62 °FOvercast.N/A79%30.20 "Hg37 mi
10:00 AM63 °FOvercast.6 mph77%30.19 "Hg31 mi
9:00 AM62 °FPartly sunny.7 mph76%30.16 "Hg31 mi
8:00 AM60 °FPassing clouds.5 mph74%30.14 "Hg31 mi
7:00 AM59 °FPassing clouds.3 mph75%30.13 "Hg25 mi
6:00 AM58 °FPassing clouds.3 mph76%30.12 "Hg22 mi
5:00 AM59 °FPassing clouds.5 mph71%30.10 "Hg22 mi
4:00 AM62 °FPassing clouds.5 mph65%30.09 "Hg25 mi
3:00 AM64 °FClear.6 mph60%30.07 "Hg25 mi
2:00 AM64 °FClear.5 mph60%30.07 "Hg25 mi
1:00 AM65 °FPassing clouds.5 mph59%30.06 "Hg25 mi
12:00 AM65 °FPassing clouds.5 mph59%30.06 "Hg31 mi
11:00 PM
Tue, Jun 2
67 °FPassing clouds.5 mph54%30.04 "Hg31 mi
10:00 PM67 °FPassing clouds.5 mph54%30.03 "Hg31 mi
9:00 PM68 °FPassing clouds.3 mph51%30.01 "Hg31 mi
8:00 PM72 °FPassing clouds.6 mph42%30.01 "Hg31 mi
7:00 PM72 °FPassing clouds.8 mph37%30.00 "Hg28 mi
6:00 PM73 °FPartly sunny.9 mph42%30.01 "Hg28 mi
5:00 PM72 °FPartly sunny.9 mph44%30.01 "Hg28 mi
Weather by CustomWeather, © 2015

See weather overviewHow to use our weather pages